User: anonymous   Login
Location: Bremen
(53.0793°N, 8.8017°E)
Time: 23:40:10
(UTC+02:00)
Language:

XW-2B - Orbit

View from above orbital plane
View from above orbital plane
View from above satellite
View from above satellite

Ground track
Ground track

The orbit data is extracted from the following two-line orbital elements,

1 40911U 15049N   24148.55251021  .00034429  00000-0  66839-3 0  9991
2 40911  97.4703 167.2702 0006161  28.7781 331.3807 15.47556296481377
Epoch (UTC): 27 May 2024 13:15:36
Eccentricity: 0.0006161
inclination: 97.4703°
perigee height: 419 km
apogee height: 428 km
right ascension of ascending node: 167.2702°
argument of perigee: 28.7781°
revolutions per day: 15.47556296
mean anomaly at epoch: 331.3807°
orbit number at epoch: 48137

The dashed part of the orbit path shows where the satellite is in the earth's shadow,  

DLR